[[{"header":{"parameterUnit":"m.s-1","parameterCategory":1,"la1":30.2991,"la2":30.254,"lo1":-89.0895,"lo2":-89.0444,"dy":0.0017,"dx":0.0017,"nx":28,"ny":28,"refTime":"2024-05-15T03:00:00:Z","depth":0,"parameterNumber":2,"parameterNumberName":"U-component_of_WINDS"},"data":[0,0,0,0,0,0,0,0,0,0,0,0,0,0,0,0,0,0,0,0,0,0,0,0,0,0,0,0,0,0,0,0,0,0,0,0,0,0,0,0,0,0,0,0,0,0,0,0,0,0,0,0,0,0,0,0,0,0,4.0021,4.0023,0,4.0225,4.0228,4.023,4.0163,4.0159,4.0154,4.015,4.0368,4.0378,4.0388,0,0,0,0,0,0,0,0,0,0,0,0,0,3.9579,3.9587,4.002,4.0023,4.0025,4.0225,4.0228,4.0231,4.0164,4.0159,4.0153,4.0148,4.0365,4.0377,4.0388,0,0,0,0,0,0,0,0,0,0,0,0,0,3.9776,3.959,4.002,4.0016,4.0018,4.0224,4.0228,4.0231,4.0165,4.0159,4.0152,4.0146,4.0361,4.0375,4.039,4.0615,0,0,4.0436,4.0442,0,0,0,0,0,0,0,0,3.9765,3.9792,4.0014,4.0017,4.0019,4.0162,4.0152,4.036,4.0167,4.011,4.015,4.0142,4.0305,4.0324,4.0378,4.0625,4.0635,4.0437,4.0446,4.0452,4.0457,0,0,0,0,0,0,0,3.9751,3.9783,4.0102,4.0017,4.0021,4.0007,4.0027,4.0191,4.0243,4.0114,4.011,4.0134,4.0305,4.0364,4.0382,4.0638,4.0437,4.045,4.0459,4.0465,4.1081,4.1088,0,0,0,0,0,0,3.9735,3.9772,4.0095,4.0108,3.9873,4.002,4.0043,4.0123,4.024,4.0252,4.014,4.013,4.0341,4.0365,4.039,4.0661,4.0452,4.0466,4.0475,4.1074,4.1083,4.1091,0,0,0,0,0,0,3.9726,3.9764,4.0087,3.9939,3.9979,4.0034,4.0125,4.013,4.0188,4.026,4.0269,4.0189,4.0337,4.0369,4.0559,4.0668,4.0473,4.0486,4.1065,4.1076,4.1087,4.1206,0,0,0,0,0,0,3.9713,3.9761,3.9846,3.9941,3.9987,4.0251,4.0131,4.0139,4.0213,4.0203,4.0309,4.032,4.0334,4.0537,4.0574,4.0685,4.0498,4.1055,4.107,4.1083,4.1192,4.1219,4.1243,0,0,0,0,0,3.9698,3.9873,3.9851,3.989,4.0093,4.0257,4.0284,4.0294,4.0222,4.0309,4.0355,4.0317,4.065,4.0557,4.0598,4.0715,4.1049,4.1066,4.1082,4.1181,4.1214,4.1242,0,0,0,0,0,0,3.9792,3.9885,3.9862,4.0072,4.0157,4.0246,4.0355,4.0329,4.0438,4.0424,4.0435,4.046,4.0655,4.0704,4.0599,4.0939,4.0839,4.0864,4.09,4.0932,4.0957,4.0942,4.0511,0,0,0,0,0,3.9837,3.996,4.0036,4.0215,4.0258,4.03,4.0371,4.0372,4.0461,4.0498,4.0557,4.0648,4.0773,4.0855,4.0974,4.1199,4.1221,4.1299,4.1324,4.1345,4.1367,4.149,4.1526,4.1146,4.1145,4.1145,0,0,3.9932,3.9998,4.0076,4.0235,4.0301,4.043,4.033,4.0472,4.0568,4.052,4.0702,4.075,4.0851,4.106,4.1155,4.1107,4.1477,4.1366,4.1382,4.1393,4.1511,4.1547,4.1579,4.1157,4.1155,4.1153,0,0,4.0171,4.0233,4.0388,4.0456,4.0555,4.0582,4.0619,4.0712,4.074,4.0923,4.0889,4.1006,4.1221,4.1294,4.136,4.1626,4.1596,4.1665,4.1797,4.1917,4.1947,4.1973,4.2069,4.2103,4.1687,4.1687,4.1687,0,4.0277,4.0468,4.0473,4.0616,4.0688,4.0647,4.0806,4.0872,4.1007,4.1059,4.1002,4.127,4.1336,4.1561,4.1625,4.168,4.1724,4.1653,4.1942,4.1968,4.1994,4.2085,4.2121,4.1695,4.1694,4.1693,4.1692,0,4.0594,4.0728,4.0842,4.097,4.1054,4.1205,4.1234,4.132,4.1313,4.1346,4.1533,4.161,4.1744,4.1797,4.1793,4.2022,4.1989,4.1937,4.1837,4.2037,4.2123,4.2159,4.1706,4.1703,4.1701,4.1699,0,0,4.09,4.1027,4.1069,4.1126,4.1233,4.1337,4.1487,4.1615,4.1688,4.1783,4.191,4.2092,4.2044,4.2118,4.2122,4.2227,4.2434,4.2162,4.2165,4.2211,4.2692,4.2731,4.2771,4.2413,4.242,4.2426,4.2684,0,4.1148,4.1408,4.1416,4.1654,4.1778,4.1741,4.1871,4.1952,4.1987,4.2099,4.2138,4.2266,4.2193,4.2238,4.234,4.2387,4.2531,4.2368,4.2534,4.254,4.251,4.2816,4.2858,4.3098,4.2717,4.2723,4.2727,0,4.1473,4.1574,4.1824,4.1912,4.1965,4.2082,4.2199,4.2306,4.2398,4.2415,4.2498,4.2486,4.2641,4.2534,4.2749,4.2638,4.2707,4.274,4.275,4.2766,4.2646,4.2842,4.3175,4.3211,4.278,4.2776,4.2772,0,4.1671,4.1871,4.2046,4.2096,4.2204,4.2287,4.2336,4.242,4.2496,4.26,4.265,4.2772,4.2839,4.2934,4.2956,4.2877,4.3172,4.3067,4.3193,4.3192,4.3257,4.3253,4.3606,4.33,4.33,4.3299,4.3298,0,4.1948,4.2103,4.2136,4.2245,4.2417,4.2425,4.2597,4.264,4.2716,4.2833,4.2809,4.292,4.2942,4.3058,4.3077,4.3252,4.3283,4.3303,4.3306,4.3306,4.3303,4.3352,4.3336,4.3308,4.3306,4.3304,4.3303,0,4.22,4.2228,4.2417,4.2502,4.2527,4.2651,4.2725,4.2829,4.286,4.3009,4.3045,4.3095,4.323,4.3261,4.3424,4.3436,4.3644,4.3631,4.3612,4.3612,4.3736,4.3724,4.4133,4.4188,4.3845,4.3848,4.3851,0,4.2375,4.2493,4.259,4.2665,4.2717,4.2839,4.2916,4.2929,4.3011,4.3123,4.3215,4.3347,4.3454,4.3673,4.3725,4.385,4.384,4.3974,4.3858,4.3854,4.3843,4.3836,4.3848,4.3997,4.4001,4.4004,4.4006,0,4.2683,4.2691,4.2801,4.2917,4.3009,4.3102,4.319,4.3254,4.3279,4.3372,4.3509,4.3592,4.3756,4.3888,4.4012,4.4065,4.4042,4.4042,4.4078,4.4079,4.4063,4.4074,4.3674,4.4033,4.403,4.4028,4.4027,4.4026,4.2903,4.3005,4.3089,4.3213,4.328,4.3363,4.3465,4.3508,4.3621,4.3754,4.3755,4.3905,4.3994,4.4158,4.4218,4.4337,4.4295,4.4347,4.4361,4.4373,4.4385,4.4043,4.436,4.4359,4.4358,4.4358,4.4357,0,4.321,4.3262,4.3375,4.3498,4.3596,4.3561,4.3657,4.3742,4.3873,4.3956,4.4061,4.4219,4.4347,4.4408,4.4535,4.4619,4.4611,4.4652,4.4647,4.4659,4.4414,4.4371,4.4656,4.4656,4.4656,4.4656,4.4656,4.4656,4.3382,4.3554,4.3571,4.3777,4.3828,4.3972,4.403,4.4107,4.4173,4.4349,4.4454,4.4492,4.4568,4.47,4.4817,4.4832,4.488,4.4927,4.4937,4.4707,4.4677,4.4648,4.4607,4.4937,4.4937,4.5172,4.5174,4.5176]},{"header":{"parameterUnit":"m.s-1","parameterCategory":1,"la1":30.2991,"la2":30.254,"lo1":-89.0895,"lo2":-89.0444,"dy":0.0017,"dx":0.0017,"nx":28,"ny":28,"refTime":"2024-05-15T03:00:00:Z","depth":0,"parameterNumber":3,"parameterNumberName":"V-component_of_WINDS"},"data":[0,0,0,0,0,0,0,0,0,0,0,0,0,0,0,0,0,0,0,0,0,0,0,0,0,0,0,0,0,0,0,0,0,0,0,0,0,0,0,0,0,0,0,0,0,0,0,0,0,0,0,0,0,0,0,0,0,0,1.5315,1.5316,0,1.5385,1.5386,1.5387,1.5365,1.5363,1.5362,1.536,1.5434,1.5437,1.5441,0,0,0,0,0,0,0,0,0,0,0,0,0,1.5164,1.5167,1.5315,1.5316,1.5317,1.5385,1.5386,1.5387,1.5365,1.5363,1.5361,1.536,1.5433,1.5437,1.5441,0,0,0,0,0,0,0,0,0,0,0,0,0,1.5231,1.5168,1.5315,1.5314,1.5315,1.5385,1.5386,1.5387,1.5365,1.5363,1.5361,1.5359,1.5432,1.5437,1.5442,1.5518,0,0,1.5457,1.5459,0,0,0,0,0,0,0,0,1.5228,1.5237,1.5313,1.5314,1.5315,1.5364,1.536,1.5431,1.5366,1.5346,1.536,1.5358,1.5413,1.5419,1.5437,1.5521,1.5524,1.5457,1.546,1.5463,1.5464,0,0,0,0,0,0,0,1.5223,1.5234,1.5343,1.5315,1.5316,1.5311,1.5318,1.5373,1.5391,1.5348,1.5346,1.5355,1.5413,1.5432,1.5439,1.5525,1.5457,1.5462,1.5465,1.5467,1.5675,1.5677,0,0,0,0,0,0,1.5217,1.523,1.5341,1.5345,1.5265,1.5315,1.5323,1.5351,1.5391,1.5394,1.5357,1.5354,1.5425,1.5433,1.5441,1.5533,1.5463,1.5467,1.547,1.5672,1.5675,1.5678,0,0,0,0,0,0,1.5214,1.5227,1.5338,1.5287,1.5301,1.532,1.5351,1.5353,1.5373,1.5397,1.5401,1.5373,1.5424,1.5434,1.5499,1.5535,1.547,1.5474,1.5669,1.5673,1.5676,1.5717,0,0,0,0,0,0,1.521,1.5226,1.5255,1.5288,1.5304,1.5394,1.5353,1.5356,1.5381,1.5378,1.5414,1.5418,1.5423,1.5491,1.5504,1.5541,1.5478,1.5666,1.5671,1.5675,1.5713,1.5722,1.573,0,0,0,0,0,1.5205,1.5265,1.5257,1.527,1.534,1.5396,1.5405,1.5409,1.5384,1.5414,1.5429,1.5417,1.5529,1.5498,1.5512,1.5551,1.5664,1.5669,1.5675,1.5709,1.572,1.5729,0,0,0,0,0,0,1.5237,1.5269,1.5261,1.5333,1.5362,1.5392,1.5429,1.5421,1.5458,1.5453,1.5457,1.5465,1.5531,1.5547,1.5512,1.5627,1.5593,1.5601,1.5614,1.5625,1.5633,1.5628,1.5482,0,0,0,0,0,1.5252,1.5294,1.532,1.5381,1.5396,1.541,1.5435,1.5435,1.5465,1.5478,1.5498,1.5528,1.557,1.5598,1.5638,1.5714,1.5722,1.5748,1.5757,1.5764,1.5771,1.5813,1.5825,1.5696,1.5696,1.5696,0,0,1.5285,1.5307,1.5334,1.5388,1.5411,1.5455,1.5421,1.5469,1.5502,1.5485,1.5547,1.5563,1.5597,1.5667,1.57,1.5683,1.5808,1.5771,1.5776,1.578,1.582,1.5832,1.5843,1.57,1.5699,1.5699,0,0,1.5366,1.5387,1.5441,1.5463,1.5497,1.5506,1.5519,1.555,1.556,1.5622,1.561,1.5649,1.5722,1.5747,1.5769,1.5859,1.5848,1.5872,1.5917,1.5957,1.5967,1.5976,1.6008,1.602,1.5879,1.5879,1.5879,0,1.5403,1.5468,1.5469,1.5518,1.5543,1.5528,1.5583,1.5605,1.5651,1.5668,1.5649,1.5739,1.5761,1.5837,1.5859,1.5877,1.5892,1.5868,1.5965,1.5974,1.5983,1.6014,1.6026,1.5882,1.5881,1.5881,1.5881,0,1.5511,1.5557,1.5595,1.5639,1.5668,1.5719,1.5728,1.5757,1.5755,1.5766,1.5829,1.5854,1.5899,1.5917,1.5916,1.5993,1.5982,1.5964,1.593,1.5998,1.6027,1.6039,1.5886,1.5885,1.5884,1.5883,0,0,1.5617,1.5659,1.5673,1.5693,1.5729,1.5764,1.5815,1.5858,1.5883,1.5914,1.5957,1.6018,1.6001,1.6027,1.6027,1.6063,1.6132,1.604,1.6041,1.6057,1.6219,1.6233,1.6247,1.6125,1.6127,1.6129,1.6217,0,1.5702,1.579,1.5792,1.5873,1.5915,1.5902,1.5946,1.5973,1.5984,1.6022,1.6034,1.6078,1.6052,1.6067,1.6101,1.6117,1.6165,1.611,1.6166,1.6168,1.6159,1.6262,1.6277,1.6359,1.6228,1.623,1.6231,0,1.5813,1.5847,1.5933,1.5962,1.5979,1.6019,1.6058,1.6094,1.6125,1.613,1.6158,1.6153,1.6205,1.6168,1.624,1.6203,1.6225,1.6236,1.6239,1.6245,1.6204,1.6272,1.6385,1.6397,1.6249,1.6248,1.6247,0,1.5882,1.5949,1.6009,1.6026,1.6061,1.6089,1.6106,1.6133,1.6159,1.6194,1.621,1.625,1.6273,1.6304,1.6311,1.6283,1.6383,1.6347,1.6389,1.6389,1.6412,1.6411,1.6531,1.6425,1.6425,1.6425,1.6424,0,1.5977,1.603,1.604,1.6077,1.6136,1.6138,1.6196,1.621,1.6235,1.6274,1.6265,1.6302,1.6308,1.6347,1.6352,1.6411,1.6421,1.6427,1.6428,1.6429,1.6428,1.6444,1.6439,1.6428,1.6427,1.6427,1.6426,0,1.6065,1.6074,1.6138,1.6166,1.6174,1.6216,1.624,1.6275,1.6285,1.6335,1.6347,1.6362,1.6407,1.6416,1.647,1.6473,1.6544,1.6539,1.6533,1.6533,1.6576,1.6572,1.6711,1.673,1.6611,1.6612,1.6613,0,1.6126,1.6166,1.6198,1.6223,1.624,1.6282,1.6307,1.631,1.6338,1.6374,1.6405,1.6449,1.6485,1.6557,1.6574,1.6614,1.6611,1.6657,1.6617,1.6616,1.6612,1.661,1.6614,1.6665,1.6666,1.6667,1.6668,0,1.6233,1.6235,1.6272,1.6311,1.6341,1.6372,1.6402,1.6423,1.643,1.6461,1.6507,1.6534,1.6588,1.6632,1.6672,1.6689,1.668,1.668,1.6692,1.6694,1.6689,1.6693,1.6555,1.6677,1.6676,1.6676,1.6675,1.6675,1.6309,1.6344,1.6372,1.6414,1.6435,1.6463,1.6497,1.6511,1.6548,1.6592,1.6592,1.6642,1.667,1.6724,1.6743,1.6782,1.6768,1.6786,1.679,1.6795,1.6799,1.6682,1.679,1.6789,1.6789,1.6789,1.6789,0,1.6416,1.6433,1.6471,1.6512,1.6545,1.6532,1.6563,1.6592,1.6636,1.6663,1.6697,1.6749,1.6792,1.6811,1.6852,1.688,1.6877,1.6891,1.689,1.6894,1.6809,1.6795,1.6893,1.6893,1.6893,1.6893,1.6893,1.6893,1.6476,1.6534,1.654,1.6609,1.6625,1.6674,1.6693,1.6718,1.6739,1.6798,1.6833,1.6844,1.6868,1.6911,1.695,1.6954,1.697,1.6987,1.6989,1.691,1.69,1.689,1.6876,1.699,1.699,1.707,1.7071,1.7072]}]]